Home   Weather   Granada   Past weeks

Flag for Spain Past Weather in Granada, Spain — Yesterday and Last 2 Weeks

Now
75 °F

Mild.


Feels Like: 78 °F
Forecast: 64 / 95 °F
Wind: 1 mph from North

Location: Granada / Aeropuerto

Current Time: Aug 18, 2017 at 1:28:03 am

Latest Report: Aug 18, 2017 at 1:00 am


Visibility: N/A

Pressure: 30.12 "Hg (27.80 "Hg at 698m altitude)

Humidity: 54%

Dew Point: 57 °F

Location of GranadaLocation

Past Weather in Granada — Graph

°F

Granada Temperature Yesterday

Maximum temperature yesterday: 102 °F (at 4:30 pm)
Minimum temperature yesterday: 63 °F (at 8:00 am)
Average temperature yesterday: 83 °F

High & Low Weather Summary for the Past Weeks

 TemperatureHumidityPressure
High108 °F (Aug 4, 4:30 pm)88% (Aug 11, 7:00 am)30.18 "Hg (Aug 11, 7:00 am)
Low55 °F (Aug 9, 7:30 am)8% (Aug 4, 4:00 pm)29.95 "Hg (Aug 4, 7:30 pm)
Average82 °F36%30.06 "Hg
* Reported Aug 3 12:00 am — Aug 18 12:00 am, Granada. Weather by CustomWeather, © 2017

Note: Actual official high and low records may vary slightly from our data, if they occured in-between our weather recording intervals... More about our weather records

Advertising

Granada Weather History for the Previous 24 Hours

Scroll right to see more
 ConditionsComfort  
Time TempWeatherWind HumidityBarometerVisibility
12:00 am
Fri, Aug 18
79 °FWarm.No wind45%30.12 "HgN/A
11:30 pm
Thu, Aug 17
81 °FWarm.No wind48%30.12 "HgN/A
11:00 pm82 °FClear.2 mph42%30.09 "Hg10 mi
10:30 pm84 °FClear.1 mph37%30.09 "Hg10 mi
10:00 pm88 °FClear.6 mph33%30.09 "Hg10 mi
9:30 pm88 °FClear.3 mph35%30.07 "Hg10 mi
9:00 pm90 °FPassing clouds.8 mph36%30.07 "HgN/A
8:30 pm93 °FPassing clouds.8 mph30%30.04 "HgN/A
8:00 pm97 °FPassing clouds.3 mph25%30.04 "HgN/A
7:30 pm97 °FPassing clouds.7 mph25%30.04 "HgN/A
7:00 pm99 °FPassing clouds.15 mph24%30.04 "HgN/A
6:30 pm99 °FPassing clouds.16 mph24%30.04 "HgN/A
6:00 pm100 °FPassing clouds.13 mph22%30.04 "HgN/A
5:30 pm100 °FPassing clouds.13 mph21%30.04 "HgN/A
5:00 pm100 °FPassing clouds.7 mph21%30.04 "HgN/A
4:30 pm102 °FPassing clouds.1 mph20%30.07 "HgN/A
4:00 pm100 °FPassing clouds.3 mph20%30.07 "HgN/A
3:30 pm100 °FPassing clouds.2 mph20%30.07 "HgN/A
3:00 pm99 °FPassing clouds.5 mph21%30.09 "HgN/A
2:30 pm99 °FPassing clouds.5 mph18%30.09 "HgN/A
2:00 pm97 °FPassing clouds.5 mph19%30.09 "HgN/A
1:30 pm95 °FSunny.5 mph15%30.12 "Hg10 mi
1:00 pm93 °FSunny.2 mph23%30.12 "Hg10 mi
12:30 pm90 °FSunny.2 mph22%30.12 "Hg10 mi
12:00 pm88 °FSunny.1 mph22%30.12 "Hg10 mi
11:30 am84 °FSunny.1 mph25%30.12 "Hg10 mi
11:00 am81 °FSunny.No wind26%30.12 "Hg10 mi
10:30 am79 °FSunny.No wind28%30.15 "Hg10 mi
10:00 am77 °FSunny.No wind30%30.15 "Hg10 mi
9:30 am72 °FSunny.No wind38%30.15 "Hg10 mi
9:00 am68 °FSunny.No wind40%30.15 "Hg10 mi
8:30 am66 °FSunny.No wind43%30.12 "Hg10 mi
8:00 am63 °FSunny.No wind45%30.12 "Hg10 mi
7:30 am64 °FClear.1 mph43%30.12 "Hg10 mi
7:00 am64 °FClear.1 mph46%30.12 "Hg10 mi
6:30 am64 °FClear.No wind46%30.12 "Hg10 mi
6:00 am66 °FClear.1 mph40%30.12 "Hg10 mi
5:30 am66 °FMild.1 mph40%30.12 "HgN/A
5:00 am66 °FMild.1 mph43%30.12 "HgN/A
4:30 am66 °FMild.1 mph37%30.09 "HgN/A
4:00 am68 °FMild.No wind35%30.12 "HgN/A
3:30 am70 °FMild.No wind33%30.12 "HgN/A
3:00 am70 °FMild.No wind35%30.12 "HgN/A
2:00 am73 °FMild.No wind33%30.12 "HgN/A
1:30 am73 °FMild.3 mph33%30.12 "HgN/A
1:00 am73 °FMild.1 mph31%30.12 "HgN/A
Weather by CustomWeather, © 2017

See weather overviewHow to use our weather pages